Powrót do katalogu

SCOUT A-1 DEB

AktywnyPO
NORAD 18496·DEBRIS·🇺🇸 United States

Wystrzelony Oct 30, 1973 z Vandenberg Space Force Base

Loading…

Następne Przeloty (najbliższe 24 godziny)

TLE

ŚwieżeSource: Space-Track

Epoka: Sep 14, 2026, 08:40 UTC

1 18496U 73081D   26257.36152163  .00000201  00000-0  16986-3 0  9992
2 18496  89.9040 112.1819 0132824 288.3567 248.5296 13.81269813939641

Śledź SCOUT A-1 DEB w czasie rzeczywistym z AllMySat

Download on the App Store